STARLINK-1735, 46565

Orbit data source: Space-Track

STARLINK-1735, 46565 is a payload satellite owned by SpaceX/Seattle (US) in LEO that was launched on Tue, 06 Oct 2020 UTC via an FALCON 9 launch vehicle from the Air Force Eastern Test Range (AFETR). Payload-class satellites include a variety of spacecraft equipped with specific instruments for various scientific and technological missions. These include communications satellites like Starlink; space stations such as the ISS; scientific satellites like the Hubble; Earth observation satellites from companies like Planet Labs, Umbra, and HawkEye 360; GPS; miniature CubeSats for education and research; and military/defense satellites.

Loading next visibility...
Identifier
46565, 2020-070AK
Orbit
LEO
Last TLE update
17 hours ago
Origin
Manufacturer
SpaceX/Seattle
Mission
Operational Commercial Communications
Bus & Motor
STARLINK, Unknown motor
Mass
260 kg wet, ~248 kg dry
Launch date (UTC)
2020-10-06 (5 years ago)
Launch vehicle
FALCON 9
Launch site
Air Force Eastern Test Range (AFETR)
Object type
Payload
Rocket body
Debris
Shape & HBR
Box + 1 Pan, 8.86 m
Radar Cross Section
13.562 m², Large (>1 m²)

Expand to show TLE details & history

TLE from 17 hours ago
0 STARLINK-1735
1 46565U 20070AK  25128.57458473 -.00011284  00000-0 -73914-3 0  9991
2 46565  53.0562  86.3276 0001318 120.3315 239.7805 15.06435627253495
Epoch: 2025-05-08T13:47Z
Definitive object data (Epoch: 2025-05-08T13:47:24.12Z)
Latitude
0.00001°
Longitude
12.83398°
Altitude
548.441 km
Speed
7.589 km/s
True Right ascension
05h 45m 18s
True Declination
0° 00' 00"
Sunlit
Object was in daylight at TLE epoch
Visualization TLE readout
Latitude
-11.59585°
Longitude
-161.47821°
Altitude
549.972 km
Speed
7.588 km/s
Apparent Right ascension
21h 11m 05s
Apparent Declination
-45° 39' 38"
Sunlit
Object is in full shadow
Visualization observer readout
Local Sidereal Time
14:43:11
Azimuth
125.46° SE
Elevation
-31.603°
Doppler factor
1
Orbital elements
Apogee altitude
548.286 km
Perigee altitude
546.46 km
Semi-major axis
6,925.51 km
Eccentricity
0.0001318
Inclination
53.0562°
RAAN
86.3276°
Arg. of periapsis
120.3315°
True anomaly
239.76745°
Mean anomaly
239.7805°
Eccentric anomaly
239.77398°
Mean motion
3.76587 °/min
BSTAR
-0.00073914
Orbital period
95.6 mins
Loading maneuver chart data...
Loading SW <> Apogee altitude chart data...
Loading historical data...
Loading historical data...
Loading historical data...
Loading historical data...
Loading historical data...
Loading historical data...
Loading historical data...

STARLINK-1735 Visibility forecast

Observer location: undefined°, undefined°

Span
Click to sort rows by Start time (UTC) header in descending order
Start Az.
Max El. time (UTC)
Max El. Az.
Max El.
End time (UTC)
End Az.
6 mins2025-05-09 07:51:19.738Z281.332° WNW2025-05-09 07:54:19.738Z229.729° WSW21.657°2025-05-09 07:57:19.738Z179.442° S
6 mins2025-05-09 23:24:19.738Z215.303° SW2025-05-09 23:27:19.738Z123.19° SE42.1°2025-05-09 23:30:19.738Z57.531° ENE
5 mins2025-05-10 01:05:19.738Z298.956° NW2025-05-10 01:07:19.738Z343.106° N22.671°2025-05-10 01:10:19.738Z30.971° NE
4 mins2025-05-10 04:27:19.738Z355.308° N2025-05-10 04:28:19.738Z13.496° NNE17.21°2025-05-10 04:31:19.738Z61.613° ENE
6 mins2025-05-10 06:06:19.738Z320.422° NNW2025-05-10 06:08:19.738Z3.299° NNE41.025°2025-05-10 06:12:19.738Z118.908° SE
|